SCOUT X-4 DEB, 805

Orbit data source: Space-Track

SCOUT X-4 DEB, 805 is space debris in LEO originally from a launch on Thu, 04 Jun 1964 UTC launched from the Air Force Western Test Range (AFWTR). Debris objects in space refer to the collection of defunct objects orbiting the Earth. Examples of debris include non-operational satellites, rocket bodies, and fragments generated from explosions, collisions, or faulty payload assembly.

Loading next visibility...
Identifier
805, 1964-026B
Orbit
LEO
Last TLE update
2 days ago
Origin
Manufacturer
Unknown
Mission
Spacecraft
Bus & Motor
Unknown
Mass
Unknown
Launch date (UTC)
1964-06-04 (61 years ago)
Launch vehicle
Unknown
Launch site
Air Force Western Test Range (AFWTR)
Object type
Payload
Rocket body
Debris
Shape & HBR
Unknown
Radar Cross Section
Small (<0.1 m²)

Expand to show TLE details & history

TLE from 2 days ago
0 SCOUT X-4 DEB
1 00805U 64026B   25181.68004394  .00001104  00000-0  38571-3 0  9995
2 00805  89.8656 334.5819 0027443 279.5049  80.3048 14.34565860139611
Epoch: 2025-06-30T16:19Z
TLE epoch observation values (Epoch: 2025-06-30T16:19:15.796Z)
Latitude
-0.00002°
Longitude
170.7797°
Altitude
776.33 km
Speed
7.467 km/s
True Right ascension
22h 18m 19s
True Declination
0° 00' 00"
Sunlit
Object was in full shadow at epoch
Visualization orbit readout
Latitude
-77.75592°
Longitude
-8.6279°
Altitude
785.565 km
Speed
7.47 km/s
Apparent Right ascension
05h 30m 58s
Apparent Declination
-65° 03' 38"
Sunlit
Object is in daylight
Visualization observer readout
Local Sidereal Time
16:21:59
Azimuth
195.963° SSW
Elevation
-62.961°
Doppler factor
1
Orbital elements
Apogee altitude
793.063 km
Perigee altitude
753.811 km
Semi-major axis
7,151.574 km
Eccentricity
0.00274
Inclination
89.8656°
RAAN
334.5819°
Arg. of periapsis
279.5049°
True anomaly
Unknown
Mean anomaly
80.3048°
Eccentric anomaly
Unknown
Mean motion
3.58873 °/min
Orbital period
100.31 mins
BSTAR
0.00038571
Loading maneuver chart data...
Loading SW <> Apogee altitude chart data...
Loading historical data...
Loading historical data...
Loading historical data...
Loading historical data...
Loading historical data...
Loading historical data...
Loading historical data...

SCOUT X-4 DEB Visibility forecast

Observer location: undefined°, undefined°

Span
Click to sort rows by Start time (UTC) header in descending order
Start Az.
Max El. time (UTC)
Max El. Az.
Max El.
End time (UTC)
End Az.
10 mins2025-07-02 10:16:32.593Z165.313° S2025-07-02 10:21:32.593Z83.452° E42.316°2025-07-02 10:26:32.593Z4.303° NNE
9 mins2025-07-02 22:28:32.593Z2.581° NNE2025-07-02 22:32:32.593Z21.102° NNE44.934°2025-07-02 22:37:32.593Z183.055° SSW
|